Regional Weather Roundup
Issued by NWS

Home | Current Version | Previous Version | Text Only | Print | Product List | Glossary Off
Versions: 1 2 3 4 5 6 7 8 9 10 11 12 13 14 15 16 17 18 19 20 21 22 23 24 25 26 27 28 29 30 31 32 33 34 35 36 37 38 39 40 41 42 43 44 45 46 47 48 49 50

000
ASUS45 KTFX 190804
RWRMT
MONTANA HOURLY WEATHER ROUNDUP
NATIONAL WEATHER SERVICE GREAT FALLS MT
204 AM MDT FRI SEP 19 2014

NOTE: "FAIR" INDICATES FEW OR NO CLOUDS BELOW 12000 FEET WITH NO
SIGNIFICANT WEATHER AND/OR OBSTRUCTIONS TO VISIBILITY.

* THESE STATIONS ARE NOT UNDER NWS QUALITY CONTROL. THEY DO NOT
   REPORT WEATHER SUCH AS PRECIPITATION OR FOG.

MTZ001>007-043-190900-
WEST OF THE DIVIDE
CITY           SKY/WX    TMP DP  RH WIND       PRES   REMARKS
KALISPELL      CLOUDY    64  46  52 W8        29.84R
MISSOULA       CLOUDY    63  45  52 CALM      29.90R
BUTTE          CLOUDY    48  43  83 SE5       29.97S
MULLAN PASS    CLOUDY    48  45  89 SW7       30.00R
* ESSEX        N/A       57  50  78 S4         N/A
* LINCOLN      N/A       60  40  48 S3G8       N/A
* LOOKOUT PASS N/A       56  47  72 SE6G14     N/A
* POLSON       N/A       61  45  56 SW2        N/A
* RONAN APT    CLOUDY    66  46  49 SW10G17    N/A
* SEELEY LAKE  N/A       57  41  55 SW1G7      N/A
* THOMP F APT  MOCLDY    50  46  86 N4G11      N/A
$$

MTZ008-052>055-190900-
SOUTHWEST MONTANA
CITY           SKY/WX    TMP DP  RH WIND       PRES   REMARKS
BOZEMAN        PTCLDY    48  46  93 E6        29.92R
DILLON         CLEAR     54  41  62 S12       29.95R
W YELLOWSTONE  FOG       45  45 100 SW3       30.07S VSB 1
* THREE FORKS  PTCLDY    54  36  51 N/A        N/A
* BOULDER HILL N/A       54  41  62 SW4        N/A
* MONIDA PASS  N/A       47  47 100 SE5        N/A
* RAYNOLDS PAS N/A       46  34  63 S7         N/A
* WHITEHALL    N/A       51  46  83 E2G7       N/A
* WISE RIVER   N/A       49  42  77 S4         N/A
$$

MTZ009>010-012-014-046-048-049-054-190900-
EAST SLOPES AND CENTRAL MONTANA
CITY           SKY/WX    TMP DP  RH WIND       PRES   REMARKS
CUT BANK       MOCLDY    63  43  48 W16       29.76R
GREAT FALLS    MOCLDY    61  43  52 SW12      29.78R
HELENA         PTCLDY    61  45  56 E3        29.87R
MALMSTROM AFB  MOCLDY    61  45  56 SW12      29.79R
* CONRAD       CLOUDY    54  52  93 S6         N/A
* EAST GLACIER N/A       56  45  67 W32G47     N/A
* MONARCH      N/A       60  39  46 N/A        N/A
* PENDROY      N/A       59  43  56 W11        N/A
* ROGERS PASS  N/A       58  38  47 SE9G16     N/A
* SAINT MARY   N/A       54  47  77 S8G17      N/A
* SWEET GRASS  N/A       63  43  48 W17G30     N/A
$$

MTZ011-013-016-021-035-040-045-047-050-051-190900-
NORTH CENTRAL MONTANA
CITY           SKY/WX    TMP DP  RH WIND       PRES   REMARKS
HAVRE          MOCLDY    63  45  52 SW7       29.68S
* CHESTER      N/A       55  41  59 NE2        N/A
* DENTON       N/A       56  48  75 SW9        N/A
* GEYSER       N/A       55  46  72 S3         N/A
* JUDITH GAP   N/A       55  47  75 W9         N/A
* LOMA         N/A       61  46  58 S4G9       N/A
$$

MTZ017>020-022>027-061-062-190900-
NORTHEAST MONTANA
CITY           SKY/WX    TMP DP  RH WIND       PRES   REMARKS
GLASGOW        MOCLDY    63  50  63 W7        29.63R
GLENDIVE       MOCLDY    66  54  65 SW14      29.66S
JORDAN         CLOUDY    61  55  81 W9        29.69R
SIDNEY         CLOUDY    63  55  75 S6        29.61F
WOLF POINT     CLOUDY    57  54  90 W7        29.61R
* BEAVER HILL  N/A       66  53  63 SW12G17    N/A
* CIRCLE       N/A       62  56  81 N/A        N/A
* LINDSAY DVD  N/A       68  54  61 SW14G21    N/A
* NAVAJO       N/A       64  51  63 W11        N/A
* SACO         N/A       60  51  72 W6         N/A
$$

MTZ028>042-056>058-190900-
SOUTHCENTRAL AND SOUTHEAST MONTANA
CITY           SKY/WX    TMP DP  RH WIND       PRES   REMARKS
BAKER          CLOUDY    63  55  75 SW10      29.72S
BILLINGS       CLOUDY    64  52  65 SW8       29.82F
LIVINGSTON     PTCLDY    57  48  72 VRB7      29.88F
MILES CITY     CLOUDY    63  54  73 W6        29.70F
* LAUREL APT   CLOUDY    63  52  68 S5         N/A
* ROUNDUP APT  CLOUDY    66  45  47 N/A        N/A
* ALZADA       N/A       62  55  78 W7         N/A
* HYSHAM       N/A       64  52  65 W7G12      N/A
* LAME DEER    N/A       61  53  75 SW10       N/A
* REED POINT   N/A       55  53  93 SW1        N/A
* ROSCOE HILL  N/A       61  35  38 S1G11      N/A
$$

REGIONAL REPORTS...DAKOTAS
CITY           SKY/WX    TMP DP  RH WIND       PRES   REMARKS
WILLISTON      CLOUDY    61  54  78 SW8       29.58F
DICKINSON      CLOUDY    64  54  70 S10       29.63F
BEACH          N/A       66  54  65 SW13      29.66F
CROSBY         FAIR      63  55  75 SW7       29.55F
TIOGA          CLEAR     64  52  65 SW13      29.60F
WATFORD CITY   CLEAR     64  54  70 W5        29.59S
BISMARCK       CLOUDY    66  61  84 S5        29.64F
GRAND FORKS    CLOUDY    66  57  73 S21G28    29.62F
FARGO          CLOUDY    64  55  73 S20G28    29.72F
BUFFALO SD     CLOUDY    64  54  70 SW14      29.67R
RAPID CITY     MOCLDY    70  52  53 N22G29    29.77R
$$

REGIONAL REPORTS...WYOMING/IDAHO/WASHINGTON
CITY           SKY/WX    TMP DP  RH WIND       PRES   REMARKS
GILLETTE       CLOUDY    61  52  72 W9        29.90R
SHERIDAN       CLOUDY    57  55  93 S6        29.85S
CODY           CLOUDY   N/A N/A N/A N/A        N/A
YELLOWSTONE LA CLOUDY    45  45 100 CALM      30.15F
SALMON         CLEAR     46  45  96 CALM      29.94R
MULLAN PASS    CLOUDY    48  45  89 SW7       30.00S
SAND POINT     CLOUDY    55  55 100 CALM      29.84R
SPOKANE        PTCLDY    59  46  62 S13       29.88R
$$

REGIONAL REPORTS...ALBERTA
CITY           SKY/WX    TMP DP  RH WIND       PRES   REMARKS
EDMONTON       MOCLDY    54  52  93 SW6       29.63S

$$



USA.gov is the U.S. government's official web portal to all federal, state and local government web resources and services.